Location: Lango�lan
(48.1202°N, 3.2340°W)
Time: 00:17:54
(UTC+00:00)

Meteor 1-31 Rocket - Visible Passes

Search period start: 24 January 2020 00:00
Search period end: 03 February 2020 00:00
Orbit: 521 x 547 km, 97.6° (Epoch: 23 January)

Date Brightness Start Highest point End Pass type
(mag) Time Alt. Az. Time Alt. Az. Time Alt. Az.
29 Jan 5.4 05:25:08 10° N 05:25:13 10° N 05:25:13 10° N visible
30 Jan 5.4 05:15:55 10° N 05:16:08 11° N 05:16:08 11° N visible
31 Jan 5.4 05:06:44 10° N 05:07:02 12° N 05:07:02 12° N visible
01 Feb 5.4 04:57:33 10° NNE 04:57:56 12° NNE 04:57:56 12° NNE visible
02 Feb 5.4 04:48:25 10° NNE 04:48:51 13° NNE 04:48:51 13° NNE visible
